St. Paul, MN

10:21 PM CDT on October 20, 2017 (GMT -0500)
Saint Paul Downtown-Holman

Weather History for KSTP - January, 2014

Change the Weather History Date:

Monday, January 27, 2014

  Actual Average Record
Temperature  
Mean Temperature -10 °F -  
Max Temperature -6 °F 23 °F 48 °F (2006)
Min Temperature -15 °F 9 °F -15 °F (2014)
Degree Days  
Heating Degree Days 76    
Moisture  
Dew Point -21 °F    
Average Humidity 59    
Maximum Humidity 67    
Minimum Humidity 54    
Precipitation  
Precipitation 0.00 in - - ()
Sea Level Pressure  
Sea Level Pressure 30.42 in    
Wind  
Wind Speed 15 mph (WNW)    
Max Wind Speed 18 mph    
Max Gust Speed 29 mph    
Visibility 10 miles    
Events      
Averages and records for this station are not official NWS values.
T = Trace of Precipitation, MM = Missing Value Source: NWS Daily Summary

Daily Weather History Graph

Daily Weather History Graph

Search for Another Location

Airport or City:

Trip Planner

Search our weather history database for the weather conditions in past years. The results will help you decide how hot, cold, wet, or windy it might be!

Date:

Astronomy

Jan. 27, 2014 Rise Set
Actual Time 7:37 AM CST 5:13 PM CST
Civil Twilight 7:05 AM CST 5:45 PM CST
Nautical Twilight 6:30 AM CST 6:20 PM CST
Astronomical Twilight 5:55 AM CST 6:55 PM CST
Moon 4:20 AM CST (1/27) 1:57 PM CST (1/27)
Length of Visible Light 10h 39m
Length of Day
9h 36m
Waning Crescent, 14% of the Moon is Illuminated
Jan 27
Waning Crescent
Jan 30
New
Feb 6
First Quarter
Feb 14
Full
Feb 22
Last Quarter

Hourly Weather History & Observations

Time (CST) Temp. Windchill Dew Point Humidity Pressure Visibility Wind Dir Wind Speed Gust Speed Precip Events Conditions
12:53 AM -8.0 °F -31.0 °F -18.0 °F 61% 30.17 in 9.0 mi WNW 17.3 mph 28.8 mph N/A   Clear
1:53 AM -9.0 °F -31.7 °F -20.0 °F 59% 30.22 in 10.0 mi WNW 16.1 mph 27.6 mph N/A   Clear
2:53 AM -11.0 °F -33.5 °F -22.0 °F 58% 30.26 in 10.0 mi WNW 15.0 mph - N/A   Clear
3:53 AM -11.9 °F -35.4 °F -22.0 °F 61% 30.29 in 10.0 mi WNW 16.1 mph 27.6 mph N/A   Clear
4:53 AM -13.0 °F -36.8 °F -23.1 °F 61% 30.31 in 10.0 mi WNW 16.1 mph 25.3 mph N/A   Clear
5:53 AM -13.0 °F -36.0 °F -24.0 °F 58% 30.35 in 10.0 mi WNW 15.0 mph - N/A   Partly Cloudy
6:53 AM -14.1 °F -39.6 °F -25.1 °F 58% 30.38 in 10.0 mi WNW 18.4 mph 25.3 mph N/A   Clear
7:53 AM -15.0 °F -37.7 °F -26.0 °F 58% 30.40 in 10.0 mi WNW 13.8 mph - N/A   Clear
8:53 AM -15.0 °F -38.5 °F -25.1 °F 61% 30.43 in 9.0 mi NW 15.0 mph 28.8 mph N/A   Clear
9:53 AM -14.1 °F -38.9 °F -24.0 °F 61% 30.45 in 10.0 mi NW 17.3 mph 26.5 mph N/A   Clear
10:53 AM -11.9 °F -34.6 °F -22.0 °F 61% 30.48 in 10.0 mi West 15.0 mph - N/A   Clear
11:53 AM -11.0 °F -33.5 °F -22.0 °F 58% 30.48 in 10.0 mi WNW 15.0 mph - N/A   Clear
12:53 PM -9.0 °F -28.4 °F -20.9 °F 56% 30.48 in 10.0 mi West 11.5 mph 18.4 mph N/A   Clear
1:53 PM -7.1 °F -27.6 °F -18.9 °F 56% 30.47 in 10.0 mi West 13.8 mph - N/A   Clear
2:53 PM -6.0 °F -27.0 °F -18.9 °F 54% 30.47 in 10.0 mi West 15.0 mph - N/A   Clear
3:53 PM -6.0 °F -25.5 °F -18.9 °F 54% 30.48 in 10.0 mi West 12.7 mph - N/A   Clear
4:53 PM -7.1 °F -27.6 °F -18.9 °F 56% 30.48 in 10.0 mi West 13.8 mph - N/A   Clear
5:53 PM -8.0 °F -28.0 °F -18.9 °F 59% 30.49 in 10.0 mi West 12.7 mph - N/A   Clear
6:53 PM -8.0 °F -26.1 °F -18.9 °F 59% 30.49 in 10.0 mi West 10.4 mph - N/A   Clear
7:53 PM -9.0 °F -28.4 °F -18.9 °F 62% 30.50 in 10.0 mi West 11.5 mph 20.7 mph N/A   Clear
8:53 PM -9.9 °F -28.6 °F -20.0 °F 61% 30.50 in 10.0 mi WNW 10.4 mph - N/A   Clear
9:53 PM -9.9 °F -26.3 °F -20.0 °F 61% 30.50 in 10.0 mi West 8.1 mph - N/A   Clear
10:53 PM -11.0 °F -24.6 °F -20.0 °F 64% 30.49 in 10.0 mi West 5.8 mph - N/A   Clear
11:53 PM -11.9 °F -23.8 °F -20.0 °F 67% 30.48 in 10.0 mi WSW 4.6 mph - N/A   Partly Cloudy